Location: ???? ?????
(30.0052°N, 31.2891°E)
Time: 21:18:11
(UTC+00:00)

CZ-4B R/B - Pass Details

Date: 26 May 2022
Orbit: 703 x 801 km, 98.9° (Epoch: 04 July)

Event Time Altitude Azimuth Distance (km) Brightness Sun altitude
Rises 02:15:00 0° 14° (NNE) 3,274 7.5 -8.7°
Reaches altitude 10° 02:17:19 10° 16° (NNE) 2,353 6.8 -8.3°
Maximum altitude 02:22:32 78° 103° (ESE) 817 3.8 -7.3°
Drops below altitude 10° 02:27:47 10° 190° (S) 2,367 5.7 -6.3°
Sets 02:30:07 0° 191° (S) 3,294 6.4 -5.9°
